Qasigiannguit

KL  EN  DA
ASIAQ
Weather Now GREENLAND SURVEY
Updated [WGT/WGST] Temperature [°C] Wind [m/s] Air pressure [hPa] Relative humidity [%] Precipitation [mm]
Present Wind chill Speed Max
20.04 16:00-1,50,01,3 ⇗2,61000420,0
20.04 15:00-1,70,01,1 ⇐2,31000370,0
20.04 14:00-2,6-4,81,6 ⇙2,51000390,0
20.04 13:00-3,1-5,61,7 ⇙2,41000420,0
20.04 12:00-4,9-7,51,6 ⇙2,31000460,0
20.04 11:00-6,2-9,01,6 ⇙2,51000460,0
20.04 10:00-7,4-10,61,7 ⇙2,61000490,0
20.04 09:00-8,5-11,81,7 ⇙2,51000530,0
20.04 08:00-10,5-14,31,8 ⇙2,61001540,0
20.04 07:00-11,6-15,11,6 ⇙2,61000590,0
20.04 06:00-12,9-17,82,2 ⇙3,01001640,0
20.04 05:00-13,4-18,22,0 ⇙2,91000640,0
20.04 04:00-13,2-18,12,1 ⇓3,11000640,0
20.04 03:00-12,4-17,42,3 ⇓3,11000610,0
20.04 02:00-12,4-17,62,4 ⇓3,41001630,0
20.04 01:00-12,2-16,51,9 ⇓3,11001640,0
20.04 00:00-12,70,01,3 ⇓1,91001670,0
19.04 23:00-12,60,01,1 ⇙2,11002680,0
19.04 22:00-11,00,01,3 ⇓1,91002630,0
19.04 21:00-9,50,01,1 ⇓1,81002570,0
19.04 20:00-8,8-11,51,4 ⇙1,81002540,0
19.04 19:00-7,3-9,81,4 ⇙2,01002470,0
19.04 18:00-7,2-10,41,8 ⇙2,41003480,0
19.04 17:00-6,8-9,41,5 ⇙2,11002450,0
19.04 16:00-6,80,01,2 ⇐2,11003390,0
Position: (68.823667,-51.173861)

[Back]